Big Piney, WY

8:48 AM MDT on August 17, 2017 (GMT -0600)
Big Piney-Marbleton

Weather History for KBPI - July, 2013

Change the Weather History Date:

Friday, July 26, 2013

  Actual Average Record
Temperature  
Mean Temperature 66 °F 63 °F  
Max Temperature 88 °F 82 °F 91 °F (2008)
Min Temperature 44 °F 44 °F 35 °F (2001)
Degree Days  
Heating Degree Days 0 3  
Month to date heating degree days 9 100  
Since 1 June heating degree days 226 405  
Since 1 July heating degree days 9 100  
Cooling Degree Days 1 1  
Month to date cooling degree days 57 18  
Year to date cooling degree days 77 20  
Since 1 June cooling degree days 77 20  
Growing Degree Days 15 (Base 50)    
Moisture  
Dew Point 36 °F    
Average Humidity 44    
Maximum Humidity 76    
Minimum Humidity 12    
Precipitation  
Precipitation 0.00 in 0.03 in 0.40 in (1982)
Month to date precipitation 0.54 0.57  
Year to date precipitation 2.24 3.83  
Sea Level Pressure  
Sea Level Pressure 30.10 in    
Wind  
Wind Speed 6 mph (North)    
Max Wind Speed 15 mph    
Max Gust Speed 22 mph    
Visibility 10 miles    
Events      
T = Trace of Precipitation, MM = Missing Value Source: NWS Daily Summary

Daily Weather History Graph

Daily Weather History Graph

Search for Another Location

Airport or City:

Trip Planner

Search our weather history database for the weather conditions in past years. The results will help you decide how hot, cold, wet, or windy it might be!

Date:

Astronomy

Jul. 26, 2013 Rise Set
Actual Time 6:06 AM MDT 8:46 PM MDT
Civil Twilight 5:34 AM MDT 9:19 PM MDT
Nautical Twilight 4:53 AM MDT 9:59 PM MDT
Astronomical Twilight 4:06 AM MDT 10:46 PM MDT
Moon 10:54 PM MDT (7/26) 10:54 AM MDT (7/26)
Length of Visible Light 15h 45m
Length of Day
14h 39m
Waning Gibbous, 79% of the Moon is Illuminated
Jul 26
Waning Gibbous
Jul 29
Last Quarter
Aug 6
New
Aug 14
First Quarter
Aug 20
Full

Hourly Weather History & Observations

Time (MDT) Temp. Windchill Dew Point Humidity Pressure Visibility Wind Dir Wind Speed Gust Speed Precip Events Conditions
12:53 AM 53.1 °F - 39.0 °F 59% 30.12 in 10.0 mi East 6.9 mph - N/A   Clear
1:53 AM 54.0 °F - 42.1 °F 64% 30.14 in 10.0 mi ESE 5.8 mph - N/A   Clear
2:53 AM 50.0 °F - 39.9 °F 68% 30.13 in 10.0 mi Calm Calm - N/A   Clear
3:53 AM 46.0 °F 41.4 °F 37.9 °F 73% 30.15 in 10.0 mi NNW 9.2 mph - N/A   Clear
4:53 AM 44.1 °F 39.5 °F 37.0 °F 76% 30.16 in 10.0 mi NNW 8.1 mph - N/A   Clear
5:53 AM 44.1 °F 39.5 °F 37.9 °F 79% 30.17 in 10.0 mi NNW 8.1 mph - N/A   Clear
6:53 AM 48.0 °F - 39.0 °F 71% 30.18 in 10.0 mi East 4.6 mph - N/A   Clear
7:53 AM 51.1 °F - 39.9 °F 66% 30.18 in 10.0 mi Calm Calm - N/A   Clear
8:53 AM 57.0 °F - 45.0 °F 64% 30.18 in 10.0 mi Calm Calm - N/A   Clear
9:53 AM 64.9 °F - 43.0 °F 45% 30.16 in 10.0 mi Calm Calm - N/A   Clear
10:53 AM 69.1 °F - 42.1 °F 38% 30.17 in 10.0 mi SSE 3.5 mph - N/A   Partly Cloudy
11:53 AM 73.9 °F - 39.9 °F 29% 30.15 in 10.0 mi SSW 9.2 mph - N/A   Clear
12:53 PM 77.0 °F - 39.0 °F 25% 30.12 in 10.0 mi WSW 6.9 mph - N/A   Clear
1:53 PM 82.0 °F - 32.0 °F 16% 30.06 in 10.0 mi Calm Calm - N/A   Clear
2:53 PM 86.0 °F - 34.0 °F 16% 30.04 in 10.0 mi Variable 5.8 mph - N/A   Clear
3:33 PM 82.4 °F - 33.8 °F 17% 30.34 in 10.0 mi Variable 4.6 mph 21.9 mph N/A   Partly Cloudy
3:53 PM 84.0 °F - 30.9 °F 15% 30.04 in 10.0 mi Variable 5.8 mph 16.1 mph N/A   Clear
4:53 PM 81.0 °F - 32.0 °F 17% 30.04 in 10.0 mi SSW 3.5 mph - N/A   Mostly Cloudy
5:53 PM 84.0 °F - 28.9 °F 14% 30.01 in 10.0 mi ESE 4.6 mph - N/A   Clear
6:53 PM 84.9 °F - 27.0 °F 12% 29.98 in 10.0 mi NW 10.4 mph - N/A   Clear
7:53 PM 82.0 °F - 27.0 °F 13% 29.97 in 10.0 mi North 12.7 mph - N/A   Clear
8:53 PM 71.1 °F - 28.9 °F 21% 29.99 in 10.0 mi North 9.2 mph - N/A   Clear
9:53 PM 64.9 °F - 30.9 °F 28% 30.00 in 10.0 mi NNW 11.5 mph - N/A   Clear
10:53 PM 61.0 °F - 30.9 °F 32% 30.00 in 10.0 mi NNW 12.7 mph - N/A   Clear
11:53 PM 60.1 °F - 30.9 °F 33% 30.00 in 10.0 mi Variable 3.5 mph - N/A   Clear